Lid_Strength_Index
-1 -1 0 3 11 12 14 13 9 10 8 6 5 7 8 7 9 12 2 1 0 -0 -1 -1 -2 -2 -1 -1 -2 -2 -2 -2 -2 -1 -2 -2 -2 -2 -2 -2 -2 -2 -2 -1 -1 -1 -1 -1 -1
-1 0 2 6 13 16 15 10 11 8 6 5 5 6 7 9 4 4 3 1 0 -0 -1 -1 -2 -2 -1 -1 -2 -2 -1 -1 -1 -2 -2 -2 -2 -2 -2 -2 -2 -2 -2 -2 -1 -1 -1 -1 -1
0 1 6 10 13 16 14 10 9 6 5 6 6 5 6 7 4 3 1 1 -0 -0 -1 -1 -2 -2 -1 -2 -2 -2 -2 -1 -1 -2 -2 -2 -1 -2 -2 -2 -2 -2 -2 -2 -2 -1 -1 -1 -1
2 4 6 12 14 11 10 8 7 7 5 5 6 8 5 2 3 1 2 1 -0 -0 -1 -1 -1 -1 -1 -2 -2 -2 -2 -1 -1 -2 -2 -1 -1 -2 -2 -2 -2 -2 -2 -2 -2 -2 -2 -1 -1
2 5 11 13 12 9 7 6 6 7 6 6 6 8 7 3 1 1 1 0 0 -0 -1 -1 -2 -2 -2 -2 -2 -2 -1 -1 -2 -2 -1 -1 -1 -1 -1 -2 -2 -2 -2 -2 -2 -2 -2 -1 -1
7 7 13 14 11 8 6 5 6 7 6 6 7 7 6 2 2 1 0 0 -0 0 -1 -1 -1 -1 -2 -2 -2 -2 -1 -1 -2 -2 -1 -1 -1 -2 -1 -2 -2 -2 -2 -2 -1 -2 -1 -1 -2
8 10 13 12 12 9 7 5 6 7 6 7 5 8 6 4 2 1 1 0 -0 -0 -0 -1 -1 -1 -2 -2 -2 -2 -1 -1 -1 -1 -1 -1 -1 -1 -1 -2 -2 -2 -2 -2 -1 -1 -1 -1 -1
6 9 12 12 11 12 6 6 5 6 6 3 4 8 8 4 1 1 1 0 0 -0 -0 -0 -1 -1 -1 -1 -2 -1 -1 -1 -1 -1 -1 -1 -1 -1 -1 -2 -2 -2 -1 -1 -1 -1 -1 -1 -2
4 11 13 12 10 9 5 6 5 4 5 4 4 5 3 2 1 2 2 1 1 1 0 -0 -0 -1 -1 -1 -1 -2 -1 -1 -1 -1 -1 -1 -2 -2 -1 -2 -2 -1 -1 -1 -1 -1 -1 -2 -2
7 12 11 8 7 8 6 6 5 6 6 6 5 3 2 2 2 3 3 3 2 2 1 -0 -0 -0 -1 -1 -1 -1 -1 -1 -1 -1 1 1 -1 -2 -1 -2 -2 -2 -1 -1 -2 -2 -2 -2 -1
6 11 7 7 6 5 6 5 4 6 7 6 6 5 3 3 3 3 3 2 2 1 0 0 -0 -1 -1 -1 -1 -1 -1 -1 -1 -1 2 0 -1 -1 -1 -1 -1 -1 -1 -1 -2 -1 -1 -1 -1
7 7 7 6 5 5 6 6 6 6 6 4 4 3 3 4 3 3 3 2 2 1 1 0 -0 -0 -1 -1 -1 -1 -1 -1 -1 -2 -2 -1 -1 -0 -1 -0 -2 -1 -1 -1 -1 -1 -2 -2 -1
6 7 6 6 6 4 5 7 7 6 4 3 3 3 4 3 3 2 2 2 1 2 1 0 -0 -0 -1 -0 -1 -1 -1 -1 -1 -1 -2 -0 -0 -1 -1 -1 -1 -0 -1 -2 -0 -1 -1 -1 -1
5 5 6 6 6 4 5 6 6 6 3 4 4 4 3 3 3 3 2 2 2 1 1 0 0 -0 -1 -1 -1 -1 -2 -2 -2 -1 -1 -2 -1 -1 -2 -1 -0 -1 -1 -0 -0 -0 -1 -1 -0
5 7 6 6 5 5 4 6 6 5 4 4 4 4 4 3 3 3 2 2 1 1 1 1 0 -0 -0 -1 -1 -2 -2 -1 -1 -1 -2 -3 -3 -2 -1 -1 -0 -2 -2 -2 -1 -1 -1 -0 -0
6 6 9 6 5 5 5 8 6 5 5 5 5 4 4 3 3 2 2 1 1 1 1 0 0 0 -0 -0 -1 -1 -1 -2 -1 -2 -1 -2 -3 -3 -2 -0 -0 -1 -1 -1 -0 -0 0 0 0
7 10 9 8 5 5 6 7 5 5 5 5 5 5 4 4 3 2 2 1 1 1 1 1 0 0 0 -0 -0 -1 -1 -1 -2 -3 -1 -2 -2 -2 -2 -1 -1 -1 -0 -1 -0 -0 0 1 0
10 10 8 9 7 6 6 7 6 5 6 6 5 5 4 4 3 2 2 1 1 1 1 1 0 0 0 -0 -0 -0 -0 -0 -2 -2 -2 -1 -2 -2 -2 -1 -1 -1 -0 -0 -0 0 -0 0 0
7 8 8 7 6 7 7 7 6 6 7 7 5 5 5 4 3 2 2 1 1 1 1 1 1 1 0 1 1 1 1 0 -0 -1 -2 -1 -1 -2 -2 -1 -0 -1 0 -0 -1 -0 0 0 -0
7 8 8 6 6 6 7 7 6 6 7 7 6 6 5 4 4 3 2 2 2 2 1 1 1 1 1 1 1 0 1 0 -0 -1 -1 -1 -1 -1 -1 -1 -1 -0 -0 -0 -0 -0 1 1 -0
8 9 8 8 6 6 7 8 7 6 5 5 5 5 4 4 4 3 3 2 2 2 2 1 1 1 0 0 0 0 0 0 1 0 0 -0 -1 -1 -1 -1 -0 -1 -0 0 0 0 1 2 1
9 6 7 7 8 10 7 12 8 7 6 5 5 5 5 4 4 3 3 3 2 2 1 1 1 1 1 0 1 1 2 2 1 1 0 -0 -1 -1 -1 -1 -1 -1 -0 0 0 -0 0 1 2
8 6 7 7 8 8 8 10 8 7 7 6 5 5 5 4 4 3 3 2 2 1 1 1 1 1 1 0 0 1 2 1 1 0 0 0 -0 -1 -1 -1 -1 -0 -0 -0 0 -0 0 0 1
5 6 7 7 8 11 9 9 10 8 7 6 5 4 4 4 4 3 3 2 2 1 1 1 1 1 1 1 1 1 1 1 1 1 1 1 1 0 -0 -1 -0 -1 -0 -0 -0 -0 0 0 1
6 8 11 12 12 12 8 10 9 6 6 5 5 4 4 4 4 3 3 3 2 2 2 2 2 2 1 1 1 1 1 1 1 1 1 1 1 1 0 -0 0 0 -0 -0 -0 -0 0 0 1
7 8 11 14 13 12 8 11 9 5 5 4 4 4 4 4 3 3 3 3 3 2 2 2 2 2 1 1 1 1 1 1 1 1 1 1 1 1 0 0 -0 -0 -0 -0 -0 0 0 0 0
8 9 7 10 9 11 10 8 6 5 5 5 4 4 4 4 3 3 3 3 3 2 2 2 2 2 2 1 1 1 1 1 1 1 0 1 0 0 0 0 0 0 -0 -0 -0 0 1 0 0
7 6 10 9 13 13 11 10 10 7 6 5 5 4 4 3 3 3 3 3 2 2 2 2 2 2 2 1 1 1 1 1 1 1 1 1 0 0 -0 0 0 0 0 -0 0 0 0 1 1
8 8 8 8 9 12 13 10 6 7 6 6 5 4 4 4 3 3 3 3 2 2 2 2 2 2 2 1 1 1 1 1 1 1 1 1 0 0 0 0 0 0 0 0 0 1 1 1 1
7 8 8 10 11 10 10 10 5 5 5 5 4 4 3 3 3 3 3 3 3 2 2 2 2 2 2 1 1 1 1 1 1 1 1 0 1 0 0 0 0 1 0 0 1 1 1 1 1